User: anonymous   Login
Location: Unspecified
(0.0000°N, 0.0000°E)
Time: 00:14:50
(UTC+00:00)
Language:

Eole - Orbit

View from above orbital plane
View from above orbital plane
View from above satellite
View from above satellite

Ground track
Ground track

The orbit data is extracted from the following two-line orbital elements,

1 05435U 71071A   17326.24181260  .00000003  00000-0  43453-4 0  9992
2 05435  50.1414 236.0290 0110634 321.2412  38.0617 14.55057672440607
Epoch (UTC): 22 November 2017 05:48:12
Eccentricity: 0.0110634
inclination: 50.1414°
perigee height: 631 km
apogee height: 787 km
right ascension of ascending node: 236.0290°
argument of perigee: 321.2412°
revolutions per day: 14.55057672
mean anomaly at epoch: 38.0617°
orbit number at epoch: 44060

The dashed part of the orbit path shows where the satellite is in the earth's shadow,  

DLR